Voltar ao catálogo

STARLINK-31494

AtivoComunicaçõesVLEO
NORAD 59238·PAYLOAD·🇺🇸 United States

Lançado Mar 16, 2024 de Cape Canaveral Space Force Station

Loading…

Próximas Passagens (próximas 24 horas)

TLE

AtualizadoSource: CelesTrak SupGP

Época: Sep 14, 2026, 21:14 UTC

1 59238C 24049H   26257.88520833 -.00045993  00000+0 -16658-2 0  2571
2 59238  42.9999 154.8283 0001298 265.1990 100.6664 15.27603182    13

Acompanhe STARLINK-31494 em tempo real com AllMySat

Download on the App Store